| time (UTC) | temp F | wind direction | speed knots | gust knots | rain 1hr in | rain 24hr in | rain mn in | humidity % | barometer mb |
| 20260507141543 | 48 | 200 | 0.0 | 0.0 | 0.00 | 0.00 | 0.00 | 84 | 1021.0 |
| 20260507140039 | 48 | 217 | 0.0 | 0.9 | 0.00 | 0.00 | 0.00 | 84 | 1020.9 |
| 20260507134540 | 48 | 204 | 0.0 | 0.0 | 0.00 | 0.00 | 0.00 | 84 | 1020.8 |
| 20260507133037 | 48 | 204 | 0.0 | 0.0 | 0.00 | 0.00 | 0.00 | 84 | 1020.7 |
| 20260507131536 | 48 | 204 | 0.0 | 0.0 | 0.00 | 0.00 | 0.00 | 83 | 1020.6 |
| 20260507130033 | 48 | 210 | 0.0 | 0.0 | 0.00 | 0.00 | 0.00 | 83 | 1020.7 |
| 20260507124531 | 48 | 210 | 0.0 | 0.0 | 0.00 | 0.00 | 0.00 | 82 | 1020.6 |
| 20260507123030 | 48 | 210 | 0.0 | 0.0 | 0.00 | 0.00 | 0.00 | 82 | 1020.8 |
| 20260507121529 | 49 | 200 | 0.0 | 0.0 | 0.00 | 0.00 | 0.00 | 82 | 1020.8 |
| 20260507120026 | 49 | 201 | 0.0 | 0.0 | 0.00 | 0.00 | 0.00 | 82 | 1020.9 |
| 20260507114525 | 49 | 222 | 0.0 | 0.9 | 0.00 | 0.00 | 0.00 | 82 | 1021.1 |
| 20260507113027 | 49 | 202 | 0.0 | 1.7 | 0.00 | 0.00 | 0.00 | 81 | 1021.1 |
| 20260507111535 | 49 | 187 | 0.0 | 0.0 | 0.00 | 0.00 | 0.00 | 81 | 1021.2 |
| 20260507110022 | 49 | 211 | 0.0 | 0.0 | 0.00 | 0.00 | 0.00 | 81 | 1021.3 |
| 20260507104521 | 49 | 202 | 0.0 | 0.0 | 0.00 | 0.00 | 0.00 | 81 | 1021.1 |
| 20260507103019 | 49 | 198 | 0.0 | 0.9 | 0.00 | 0.00 | 0.00 | 80 | 1021.2 |
| 20260507101519 | 50 | 226 | 0.0 | 2.6 | 0.00 | 0.00 | 0.00 | 80 | 1021.3 |
| 20260507100019 | 50 | 181 | 0.0 | 0.0 | 0.00 | 0.00 | 0.00 | 80 | 1021.2 |
| 20260507094516 | 50 | 225 | 0.0 | 1.7 | 0.00 | 0.00 | 0.00 | 80 | 1021.2 |
| 20260507093020 | 50 | 211 | 0.0 | 2.6 | 0.00 | 0.00 | 0.00 | 80 | 1021.2 |
| 20260507091524 | 51 | 239 | 0.0 | 2.6 | 0.00 | 0.00 | 0.00 | 80 | 1021.3 |
| 20260507090017 | 51 | 200 | 0.0 | 0.9 | 0.00 | 0.00 | 0.00 | 79 | 1021.3 |
| 20260507084519 | 51 | 242 | 0.0 | 0.0 | 0.00 | 0.00 | 0.00 | 79 | 1021.3 |
| 20260507083011 | 51 | 198 | 0.0 | 0.0 | 0.00 | 0.00 | 0.00 | 80 | 1021.3 |
| 20260507081519 | 51 | 182 | 0.0 | 0.0 | 0.00 | 0.00 | 0.00 | 80 | 1021.3 |
| 20260507080009 | 51 | 210 | 0.0 | 0.0 | 0.00 | 0.00 | 0.00 | 79 | 1021.3 |
| 20260507074508 | 51 | 264 | 0.0 | 0.0 | 0.00 | 0.00 | 0.00 | 79 | 1021.4 |
| 20260507073008 | 52 | 225 | 0.0 | 1.7 | 0.00 | 0.00 | 0.00 | 80 | 1021.3 |
| 20260507071504 | 52 | 260 | 0.0 | 0.0 | 0.00 | 0.00 | 0.00 | 81 | 1021.1 |
| 20260507070004 | 52 | 217 | 0.0 | 1.7 | 0.00 | 0.00 | 0.00 | 81 | 1021.1 |
| 20260507064502 | 52 | 184 | 0.0 | 0.0 | 0.00 | 0.00 | 0.00 | 82 | 1021.1 |
| 20260507063002 | 52 | 200 | 0.0 | 0.0 | 0.00 | 0.00 | 0.00 | 82 | 1021.2 |
| 20260507061502 | 53 | 257 | 0.0 | 3.5 | 0.00 | 0.00 | 0.00 | 82 | 1021.1 |
| 20260507060001 | 53 | 207 | 0.0 | 3.5 | 0.00 | 0.00 | 0.00 | 82 | 1021.1 |
| 20260507054501 | 53 | 184 | 0.0 | 0.0 | 0.00 | 0.00 | 0.00 | 82 | 1021.2 |
| 20260507053109 | 53 | 184 | 0.0 | 0.0 | 0.00 | 0.00 | 0.00 | 81 | 1021.2 |
| 20260507051601 | 53 | 273 | 0.0 | 0.0 | 0.00 | 0.00 | 0.00 | 81 | 1021.2 |
| 20260507050059 | 54 | 223 | 0.0 | 0.0 | 0.00 | 0.00 | 0.00 | 81 | 1021.2 |
| 20260507044606 | 54 | 218 | 0.0 | 2.6 | 0.00 | 0.00 | 0.00 | 81 | 1021.1 |
| 20260507043103 | 54 | 207 | 0.0 | 2.6 | 0.00 | 0.00 | 0.00 | 81 | 1021.2 |
| 20260507041600 | 54 | 173 | 0.0 | 2.6 | 0.00 | 0.00 | 0.00 | 80 | 1021.1 |
| 20260507040056 | 55 | 285 | 0.0 | 4.3 | 0.00 | 0.00 | 0.00 | 80 | 1021.0 |
| 20260507034606 | 55 | 196 | 0.0 | 3.5 | 0.00 | 0.00 | 0.00 | 79 | 1020.9 |
| 20260507033054 | 55 | 207 | 0.0 | 0.0 | 0.00 | 0.00 | 0.00 | 79 | 1020.8 |
| 20260507031552 | 55 | 248 | 0.0 | 0.0 | 0.00 | 0.00 | 0.00 | 78 | 1020.6 |
| 20260507030100 | 56 | 330 | 0.0 | 5.2 | 0.00 | 0.00 | 0.00 | 78 | 1020.5 |
| 20260507024556 | 56 | 220 | 0.0 | 0.0 | 0.00 | 0.00 | 0.00 | 78 | 1020.5 |
| 20260507023053 | 56 | 231 | 0.0 | 2.6 | 0.00 | 0.00 | 0.00 | 77 | 1020.4 |
| 20260507021556 | 57 | 214 | 0.0 | 0.0 | 0.00 | 0.00 | 0.00 | 77 | 1020.3 |
| 20260507020051 | 57 | 270 | 0.0 | 2.6 | 0.00 | 0.00 | 0.00 | 76 | 1020.3 |
| 20260507014553 | 57 | 311 | 0.0 | 4.3 | 0.00 | 0.00 | 0.00 | 76 | 1020.3 |
| 20260507013057 | 58 | 232 | 0.0 | 4.3 | 0.00 | 0.00 | 0.00 | 75 | 1020.1 |
| 20260507011548 | 58 | 195 | 0.0 | 4.3 | 0.00 | 0.00 | 0.00 | 75 | 1020.1 |
| 20260507010048 | 59 | 240 | 0.0 | 0.0 | 0.00 | 0.00 | 0.00 | 75 | 1020.2 |
| 20260507004547 | 59 | 340 | 0.0 | 2.6 | 0.00 | 0.00 | 0.00 | 74 | 1020.2 |
| 20260507003046 | 59 | 188 | 0.0 | 1.7 | 0.00 | 0.00 | 0.00 | 74 | 1020.2 |
| 20260507001547 | 60 | 198 | 0.0 | 4.3 | 0.00 | 0.00 | 0.00 | 73 | 1020.2 |
| 20260507000051 | 60 | 261 | 0.0 | 0.9 | 0.00 | 0.00 | 0.00 | 73 | 1020.1 |
| 20260506234548 | 60 | 312 | 0.0 | 4.3 | 0.00 | 0.00 | 0.00 | 72 | 1020.2 |
| 20260506233042 | 60 | 276 | 0.0 | 3.5 | 0.00 | 0.00 | 0.00 | 73 | 1020.1 |
| 20260506231543 | 59 | 248 | 0.0 | 0.9 | 0.00 | 0.00 | 0.00 | 74 | 1020.1 |
| 20260506230036 | 59 | 358 | 0.0 | 5.2 | 0.00 | 0.00 | 0.00 | 75 | 1020.2 |
| 20260506224534 | 59 | 10 | 0.0 | 0.0 | 0.00 | 0.00 | 0.00 | 75 | 1020.3 |
| 20260506223030 | 58 | 358 | 0.0 | 0.9 | 0.00 | 0.00 | 0.00 | 76 | 1020.4 |
| 20260506221529 | 58 | 6 | 0.0 | 5.2 | 0.00 | 0.00 | 0.00 | 77 | 1020.6 |
| 20260506220029 | 57 | 359 | 0.0 | 0.0 | 0.00 | 0.00 | 0.00 | 79 | 1020.6 |
| 20260506214525 | 57 | 174 | 0.0 | 2.6 | 0.00 | 0.00 | 0.00 | 79 | 1020.7 |
| 20260506213022 | 57 | 251 | 0.0 | 1.7 | 0.00 | 0.00 | 0.00 | 80 | 1020.7 |
| 20260506211523 | 56 | 205 | 0.0 | 6.1 | 0.00 | 0.00 | 0.00 | 81 | 1020.7 |
| 20260506210022 | 56 | 220 | 0.9 | 5.2 | 0.00 | 0.00 | 0.00 | 82 | 1020.8 |
| 20260506204517 | 56 | 184 | 0.0 | 0.9 | 0.00 | 0.00 | 0.00 | 84 | 1020.6 |
| 20260506203014 | 55 | 241 | 0.0 | 0.9 | 0.00 | 0.00 | 0.00 | 85 | 1020.6 |
| 20260506201512 | 55 | 203 | 0.0 | 2.6 | 0.00 | 0.00 | 0.00 | 86 | 1020.5 |
| 20260506200011 | 55 | 188 | 0.0 | 5.2 | 0.00 | 0.00 | 0.00 | 86 | 1020.6 |
| 20260506194512 | 55 | 249 | 0.0 | 0.9 | 0.00 | 0.00 | 0.00 | 88 | 1020.4 |
| 20260506193010 | 54 | 262 | 0.0 | 0.0 | 0.00 | 0.00 | 0.00 | 89 | 1020.4 |
| 20260506191509 | 54 | 224 | 0.0 | 2.6 | 0.00 | 0.00 | 0.00 | 90 | 1020.4 |
| 20260506190007 | 54 | 179 | 0.0 | 2.6 | 0.00 | 0.00 | 0.00 | 90 | 1020.5 |
| 20260506184507 | 53 | 183 | 0.0 | 3.5 | 0.00 | 0.00 | 0.00 | 91 | 1020.5 |
| 20260506183007 | 53 | 285 | 0.0 | 0.9 | 0.00 | 0.00 | 0.00 | 91 | 1020.2 |
| 20260506181504 | 53 | 194 | 0.0 | 0.0 | 0.00 | 0.00 | 0.00 | 91 | 1020.3 |
| 20260506180004 | 53 | 233 | 0.0 | 0.0 | 0.00 | 0.00 | 0.00 | 92 | 1020.3 |
| 20260506174502 | 52 | 203 | 0.0 | 0.0 | 0.00 | 0.00 | 0.00 | 92 | 1020.4 |
| 20260506173101 | 52 | 233 | 0.0 | 2.6 | 0.00 | 0.00 | 0.00 | 92 | 1020.3 |
| 20260506171604 | 52 | 295 | 0.0 | 0.0 | 0.00 | 0.00 | 0.00 | 93 | 1020.2 |
| 20260506170059 | 52 | 214 | 0.0 | 0.9 | 0.00 | 0.00 | 0.00 | 94 | 1020.1 |
| 20260506164601 | 52 | 210 | 0.0 | 2.6 | 0.00 | 0.00 | 0.00 | 94 | 1019.8 |
| 20260506163103 | 51 | 236 | 0.0 | 1.7 | 0.00 | 0.00 | 0.00 | 94 | 1019.7 |
| 20260506161603 | 51 | 217 | 0.0 | 0.0 | 0.00 | 0.00 | 0.00 | 94 | 1020.1 |
| 20260506160050 | 51 | 210 | 0.0 | 0.0 | 0.00 | 0.00 | 0.00 | 94 | 1019.9 |
| 20260506154608 | 51 | 221 | 0.0 | 0.0 | 0.00 | 0.00 | 0.00 | 94 | 1019.6 |
| 20260506153046 | 51 | 202 | 0.0 | 0.9 | 0.00 | 0.00 | 0.00 | 93 | 1019.8 |
| 20260506151546 | 51 | 299 | 0.0 | 0.0 | 0.00 | 0.00 | 0.00 | 94 | 1019.8 |
| 20260506150050 | 51 | 292 | 0.0 | 0.9 | 0.00 | 0.00 | 0.00 | 93 | 1019.7 |
| 20260506144549 | 51 | 229 | 0.0 | 0.0 | 0.00 | 0.00 | 0.00 | 93 | 1019.4 |
| 20260506143041 | 51 | 231 | 0.0 | 0.0 | 0.00 | 0.00 | 0.00 | 93 | 1019.6 |